This is the latest recevied weather packets stored in our database for station/object KJ5JYX. If no packets are shown the sender has not sent any weather packets the latest 10 day(s).
| Time | Temp. | Humidity | Pressure | Rain* | Wind** | Luminosity | Snow |
|---|---|---|---|---|---|---|---|
| 1777840412 | 27.22° C | 35% | 1020.6 hPa | 0 mm | - | 602 W/m² | - |
| 1777840109 | 27.22° C | 34% | 1020.5 hPa | 0 mm | - | 605 W/m² | - |
| 1777839807 | 27.22° C | 37% | 1020.2 hPa | 0 mm | - | 613 W/m² | - |
| 1777839506 | 27.22° C | 35% | 1020.5 hPa | 0 mm | - | 624 W/m² | - |
| 1777839202 | 27.22° C | 36% | 1020.8 hPa | 0 mm | - | 632 W/m² | - |
| 1777838900 | 26.67° C | 37% | 1020.6 hPa | 0 mm | - | 658 W/m² | - |
| 1777838595 | 26.67° C | 36% | 1020.8 hPa | 0 mm | - | 446 W/m² | - |
| 1777838293 | 26.67° C | 37% | 1021.2 hPa | 0 mm | - | 664 W/m² | - |
| 1777837989 | 26.67° C | 35% | 1021 hPa | 0 mm | - | 662 W/m² | - |
| 1777837687 | 27.22° C | 34% | 1021.1 hPa | 0 mm | - | 668 W/m² | - |
| 1777837382 | 27.22° C | 34% | 1021 hPa | 0 mm | - | 674 W/m² | - |
| 1777837079 | 26.67° C | 36% | 1021.2 hPa | 0 mm | - | 681 W/m² | - |
| 1777836775 | 26.67° C | 33% | 1021.2 hPa | 0 mm | - | 687 W/m² | - |
| 1777836471 | 26.67° C | 35% | 1021.6 hPa | 0 mm | - | 693 W/m² | - |
| 1777836166 | 27.22° C | 40% | 1021.3 hPa | 0 mm | - | 693 W/m² | - |
| 1777835863 | 26.67° C | 32% | 1021.5 hPa | 0 mm | - | 700 W/m² | - |
| 1777835560 | 26.67° C | 38% | 1021.4 hPa | 0 mm | - | 703 W/m² | - |
| 1777835257 | 27.22° C | 37% | 1021.7 hPa | 0 mm | - | 705 W/m² | - |
| 1777834954 | 26.67° C | 34% | 1021.7 hPa | 0 mm | - | 708 W/m² | - |
| 1777834651 | 26.67° C | 36% | 1021.5 hPa | 0 mm | - | 711 W/m² | - |
| 1777834346 | 26.67° C | 33% | 1021.9 hPa | 0 mm | - | 711 W/m² | - |
| 1777834041 | 26.67° C | 36% | 1021.9 hPa | 0 mm | - | 715 W/m² | - |
| 1777833738 | 26.67° C | 41% | 1021.8 hPa | 0 mm | - | 718 W/m² | - |
| 1777833434 | 26.67° C | 37% | 1022 hPa | 0 mm | - | 716 W/m² | - |
| 1777833131 | 26.67° C | 35% | 1022.2 hPa | 0 mm | - | 715 W/m² | - |
* Rain latest hour (hover to see other rain measurements)
** Current wind speed in m/s (hover to see current wind gust speed)